AIC137 LEPA-LOWI

Flight info

Callsign AIC137
Flight time N/A
Altitude 34000
Route MEROS DCT LAPIT DCT CHELY DCT LUMAS DCT UNANA DCT STP DCT RAPED DCT PIGOS DCT EKSID DCT NOSTA DCT NOPMU DCT ABESI DCT UTAVO DCT ROLSA DCT DEGES/N0445F300 DCT GAMSA N871 MADEB MADEB1B
Aircraft B739/M-SDE2E3FGHIRWXY/LB1

Departure

Time N/A
Airport Palma de Mallorca Airport (LEPA)

Arrival

Time 2026-05-06 18:05
Airport Innsbruck Airport (LOWI)
Time Latitude Longitude Altitude Speed Heading
2026-05-06 17:43 47.40562 9.68004 25114 ft 431 kts 105°
2026-05-06 17:43 47.40020 9.72324 24556 ft 426 kts 107°
2026-05-06 17:43 47.39426 9.76590 23990 ft 423 kts 107°
2026-05-06 17:44 47.38826 9.80833 23439 ft 421 kts 107°
2026-05-06 17:44 47.38243 9.85059 22766 ft 419 kts 106°
2026-05-06 17:44 47.37687 9.89193 22219 ft 413 kts 105°
2026-05-06 17:44 47.37403 9.93392 21860 ft 411 kts 93°
2026-05-06 17:45 47.37565 9.97572 21620 ft 405 kts 91°
2026-05-06 17:45 47.37745 10.01738 21326 ft 409 kts 90°
2026-05-06 17:45 47.37916 10.05932 21073 ft 407 kts 90°
2026-05-06 17:45 47.38076 10.10064 20809 ft 401 kts 90°
2026-05-06 17:46 47.38228 10.14151 20644 ft 399 kts 90°
2026-05-06 17:46 47.38376 10.18265 20494 ft 403 kts 91°
2026-05-06 17:46 47.38517 10.22405 20334 ft 405 kts 91°
2026-05-06 17:46 47.38656 10.26538 20156 ft 401 kts 91°
2026-05-06 17:47 47.38793 10.30634 19992 ft 398 kts 91°
2026-05-06 17:47 47.38893 10.34645 19838 ft 396 kts 91°
2026-05-06 17:47 47.39024 10.38700 19677 ft 395 kts 91°
2026-05-06 17:47 47.39164 10.42746 19500 ft 394 kts 90°
2026-05-06 17:48 47.39304 10.46782 19235 ft 395 kts 90°
2026-05-06 17:48 47.39440 10.50832 18995 ft 396 kts 90°
2026-05-06 17:48 47.39573 10.54891 18746 ft 396 kts 90°
2026-05-06 17:48 47.39702 10.58951 18512 ft 397 kts 90°
2026-05-06 17:49 47.39828 10.63021 18283 ft 397 kts 90°
2026-05-06 17:49 47.39951 10.67011 18033 ft 392 kts 90°
2026-05-06 17:49 47.40072 10.70999 17733 ft 386 kts 90°
2026-05-06 17:49 47.40190 10.74947 17453 ft 385 kts 90°
2026-05-06 17:50 47.40306 10.78909 17202 ft 385 kts 90°
2026-05-06 17:50 47.40420 10.82843 16912 ft 385 kts 91°
2026-05-06 17:50 47.40532 10.86775 16615 ft 383 kts 91°
2026-05-06 17:50 47.40644 10.90707 16397 ft 383 kts 91°
2026-05-06 17:51 47.40754 10.94645 16140 ft 385 kts 91°
2026-05-06 17:51 47.40866 10.98594 15887 ft 385 kts 91°
2026-05-06 17:51 47.40975 11.02545 15639 ft 385 kts 91°
2026-05-06 17:51 47.41080 11.06491 15379 ft 385 kts 91°
2026-05-06 17:52 47.41182 11.10374 15083 ft 382 kts 91°
2026-05-06 17:52 47.41285 11.14277 14879 ft 379 kts 91°
2026-05-06 17:52 47.41385 11.18155 14623 ft 378 kts 91°
2026-05-06 17:52 47.41487 11.22031 14292 ft 378 kts 91°
2026-05-06 17:53 47.41584 11.25906 13968 ft 377 kts 91°
2026-05-06 17:53 47.41678 11.29761 13650 ft 374 kts 92°
2026-05-06 17:53 47.41767 11.33589 13289 ft 372 kts 91°
2026-05-06 17:53 47.41860 11.37392 12928 ft 368 kts 91°
2026-05-06 17:54 47.41953 11.41153 12600 ft 366 kts 91°
2026-05-06 17:54 47.42042 11.44893 12245 ft 363 kts 90°
2026-05-06 17:54 47.42133 11.48567 11939 ft 362 kts 91°
2026-05-06 17:54 47.42220 11.52284 11603 ft 361 kts 91°
2026-05-06 17:55 47.42302 11.55980 11275 ft 360 kts 91°
2026-05-06 17:55 47.42383 11.59662 10953 ft 358 kts 91°
2026-05-06 17:55 47.42462 11.63282 10943 ft 347 kts 90°
2026-05-06 17:55 47.42538 11.66851 10999 ft 351 kts 91°
2026-05-06 17:56 47.42620 11.70478 10991 ft 353 kts 91°
2026-05-06 17:56 47.42695 11.74045 10850 ft 340 kts 91°
2026-05-06 17:56 47.42768 11.77441 10748 ft 322 kts 92°
2026-05-06 17:56 47.42625 11.80608 10671 ft 305 kts 111°
2026-05-06 17:57 47.41703 11.83246 10543 ft 277 kts 136°
2026-05-06 17:57 47.40335 11.85059 10446 ft 256 kts 152°
2026-05-06 17:57 47.38770 11.86143 10336 ft 243 kts 168°
2026-05-06 17:57 47.37141 11.86541 10160 ft 235 kts 180°
2026-05-06 17:58 47.35517 11.86453 9871 ft 233 kts 192°
2026-05-06 17:58 47.34085 11.85437 9551 ft 233 kts 227°
2026-05-06 17:58 47.33331 11.83283 9585 ft 242 kts 248°
2026-05-06 17:58 47.32809 11.80927 9464 ft 241 kts 250°
2026-05-06 17:59 47.32386 11.78556 9078 ft 241 kts 253°
2026-05-06 17:59 47.32016 11.76165 8690 ft 237 kts 253°
2026-05-06 17:59 47.31667 11.73808 8300 ft 235 kts 255°
2026-05-06 17:59 47.31317 11.71443 7891 ft 235 kts 254°
2026-05-06 18:00 47.30969 11.69096 7467 ft 233 kts 254°
2026-05-06 18:00 47.30622 11.66796 7110 ft 228 kts 256°
2026-05-06 18:00 47.30296 11.64534 6741 ft 224 kts 256°
2026-05-06 18:00 47.29972 11.62313 6383 ft 219 kts 255°
2026-05-06 18:01 47.29653 11.60145 6016 ft 214 kts 256°
2026-05-06 18:01 47.29346 11.58052 5672 ft 210 kts 255°
2026-05-06 18:01 47.29042 11.55979 5315 ft 204 kts 255°
2026-05-06 18:01 47.28745 11.53950 4985 ft 203 kts 255°
2026-05-06 18:02 47.28446 11.51904 4641 ft 205 kts 255°
2026-05-06 18:02 47.28145 11.49846 4323 ft 205 kts 257°
2026-05-06 18:02 47.27846 11.47792 3979 ft 205 kts 255°
2026-05-06 18:02 47.27552 11.45775 3625 ft 198 kts 257°
2026-05-06 18:03 47.27270 11.43832 3317 ft 187 kts 257°
2026-05-06 18:03 47.27010 11.42036 2986 ft 172 kts 257°
2026-05-06 18:03 47.26767 11.40389 2662 ft 157 kts 255°
2026-05-06 18:03 47.26539 11.38878 2377 ft 151 kts 258°
2026-05-06 18:04 47.26404 11.37889 2280 ft 152 kts 254°
2026-05-06 18:04 47.26264 11.36524 2071 ft 149 kts 252°
2026-05-06 18:04 47.26088 11.35016 1905 ft 144 kts 252°
2026-05-06 18:05 47.25979 11.34009 1896 ft 52 kts 261°
2026-05-06 18:05 47.25933 11.33720 1905 ft 15 kts 217°
2026-05-06 18:05 47.25857 11.33784 1897 ft 14 kts 126°
2026-05-06 18:05 47.25795 11.33913 1892 ft 15 kts 121°
2026-05-06 18:06 47.25772 11.34067 1898 ft 17 kts 86°
2026-05-06 18:06 47.25790 11.34249 1894 ft 18 kts 82°
2026-05-06 18:06 47.25809 11.34425 1886 ft 17 kts 81°
2026-05-06 18:06 47.25827 11.34592 1896 ft 16 kts 81°
2026-05-06 18:07 47.25826 11.34726 1898 ft 11 kts 130°
2026-05-06 18:07 47.25790 11.34744 1894 ft 0 kts 172°